Weather in Novopervomayskoye

Russia / Novosibirsk Oblast     55°08′34″N   75°24′18″E
temp.,
°C
wind,
m/s
gust,
m/s
humid.,
%
clouds,
%
prec.,
mm/h
press.,
hPa
HPBL,
m
28 february, sun
sun2801:00−30sse349933 0.0 103455
04:00−30sse469934 0.0 103282
07:00−28se479858 0.0 1030114
10:00−25se5994100 0.0 1028242
13:00−21ese6994100 0.0 1025285
16:00−18ese61095100 0.1 1023357
19:00−18ese61094100 0.3 1020400
22:00−17e61194100 0.1 1017306
1 march, mon
mon101:00−16e61196100 0.4 1013301
04:00−15ene61195100 0.9 1010324
07:00−13ene61194100 1.8 1008331
10:00−13ene61094100 0.3 1007345
13:00−12ne6995100 1.1 1007351
16:00−12ne5893100 0.6 1008402
19:00−12nne4794100 0.8 1010395
22:00−14n369697 0.1 1012195
2 march, tue
tue201:00−18nnw339788 0.1 101429
04:00−20nnw1210089 0.0 101620
07:00−21nw1110092 0.1 101720
10:00−18wsw119797 0.1 101757
13:00−15ssw229198 0.1 1017240
16:00−13ssw2389100 0.1 1016392
19:00−14s2296100 0.3 101643
22:00−16s229790 0.1 101520
3 march, wed
wed301:00−17s129785 0.2 101520
04:00−17sw119784 0.1 101420
07:00−18sw119784 0.2 101520
10:00−18sw229776 0.0 101620
13:00−14sw349371 0.1 1017260
16:00−13ssw359276 0.0 1017328
19:00−15s479683 0.0 1018167
22:00−17s5109497 0.0 1017267
4 march, thu
thu401:00−17s5109495 0.0 1017246
04:00−15s5119499 0.0 1015290
07:00−15s61194100 0.0 1014261
10:00−13s71293100 0.0 1012337
13:00−9s71393100 0.1 1010438
16:00−7s81393100 0.3 1008556
19:00−5s71392100 0.4 1007719
22:00−4s71394100 0.6 1005590